Regional Weather Roundup
Issued by NWS Upton, NY

Current Version | Previous Version | Graphics & Text | Print | Product List | Glossary Off
Versions: 1 2 3 4 5 6 7 8 9 10 11 12 13 14 15 16 17 18 19 20 21 22 23 24 25 26 27

000
ASUS41 KOKX 271808
RWROKX

REGIONAL WEATHER ROUNDUP
NATIONAL WEATHER SERVICE NEW YORK NY
200 PM EDT MON MAR 27 2017

NOTE: "FAIR" INDICATES FEW OR NO CLOUDS BELOW 12,000 FEET WITH NO
SIGNIFICANT WEATHER AND/OR OBSTRUCTIONS TO VISIBILITY.

NYZ071-072-176-178-NJZ106-104-271900-
NEW YORK CITY METRO AREA

CITY           SKY/WX    TMP DP  RH WIND       PRES   REMARKS
Central Park   CLOUDY    51  45  79 CALM      30.05F
Wall St Helipt CLOUDY    48  44  86 SW3       30.05F
LaGuardia APRT CLOUDY    46  42  86 NE7       30.04F
Kennedy INTL   CLOUDY    51  47  86 W6        30.05F
Breezy Point     N/A     46 N/A N/A W2          N/A
Newark/Liberty CLOUDY    50  46  86 CALM      30.04S
Teterboro      CLOUDY    49  45  86 CALM      30.03F
$$

NYZ177-179-078>081-271900-
LONG ISLAND NEW YORK

CITY           SKY/WX    TMP DP  RH WIND       PRES   REMARKS
Jones Beach      N/A     46 N/A N/A SW5         N/A
Matinecock PT  NOT AVBL
Farmingdale    CLOUDY    53  50  89 W8        30.03F
MacArthur/ISP  CLOUDY    54  51  90 W9        30.02F
Shirley        CLOUDY    52  51  97 SW9       30.03F
Westhampton    CLOUDY    50  49  96 SW8       30.05F
East Hampton   CLOUDY    48  47  96 SW9       30.03F
Montauk        NOT AVBL
$$

NYZ052-065-067-271900-
HUDSON VALLEY

CITY           SKY/WX    TMP DP  RH WIND       PRES   REMARKS
White Plains   CLOUDY    46  43  89 CALM      30.02F FOG
Newburgh       LGT RAIN  41  41 100 CALM      30.05F FOG
Montgomery     CLOUDY    42  40  92 CALM      30.02F
Poughkeepsie   CLOUDY    40  39  97 CALM      30.04F
Albany         CLOUDY    43  37  79 S7        30.02F
$$

NJZ001-105-106-008-010-013-015-019>022-104-271900-
NEW JERSEY

CITY           SKY/WX    TMP DP  RH WIND       PRES   REMARKS
Newark/Liberty CLOUDY    50  46  86 CALM      30.04S
Teterboro      CLOUDY    49  45  86 CALM      30.03F
Caldwell       CLOUDY    47  44  90 VRB3      30.05F
Somerville     CLOUDY    49  46  90 VRB6      30.03F
Linden         CLOUDY    52  47  85 CALM      30.04F
Sussex         CLOUDY    43  42  97 E3        30.03F
Andover          N/A     46  44  93 VRB3      30.03S
Trenton        CLOUDY    52  48  86 W5        30.04F
Millville      PTSUNNY   66  58  75 W14G23    30.03F
Atlantic City  CLOUDY    65  57  75 W10       30.03F
Wrightstown    CLOUDY    58  54  88 W7        30.00F
Toms River     CLOUDY    61  57  87 SW10      30.03F
Belmar         CLOUDY    57  53  86 SW8       30.03F
$$

PAZ047>061-062-071-271900-
EASTERN PENNSYLVANIA

CITY           SKY/WX    TMP DP  RH WIND       PRES   REMARKS
Philadelphia   CLOUDY    54  50  86 SW9       30.04F
Allentown      CLOUDY    47  43  86 CALM      30.04F FOG
Scranton       CLOUDY    50  46  86 SW9       30.00F
$$

CTZ002-004>006-009-010-012-RIZ004-006-007-MAZ004-011-015-271900-
SOUTHERN NEW ENGLAND
 IN CT

CITY           SKY/WX    TMP DP  RH WIND       PRES   REMARKS
Bradley INTL   CLOUDY    38  37  97 N6        30.07S FOG     WCI  33
Hartford       CLOUDY    39  37  92 N7        30.07F WCI  34
Danbury        LGT RAIN  41  40  96 N6        30.04F FOG
Wtrbury/Oxford FOG       39  36  87 CALM      30.05S VSB 1/4
Bridgeport     CLOUDY    47  43  86 N5        30.05S
Meriden        CLOUDY    41  37  86 NE5       30.06F
New Haven      CLOUDY    42  40  92 N9        30.04F
Chester        NOT AVBL
Groton         LGT RAIN  48  47  96 S3        30.03F
Wilimantic     CLOUDY    44  43  96 N6        30.05F

 IN RI

CITY           SKY/WX    TMP DP  RH WIND       PRES   REMARKS
Providence     RAIN      45  43  93 S3        30.04F FOG
Block Island   CLOUDY    47  47 100 S13       30.04F
Westerly       RAIN      47  47 100 S5        30.04F FOG
 IN MA

CITY           SKY/WX    TMP DP  RH WIND       PRES   REMARKS
Boston         RAIN      42  41  96 N7        30.06F FOG
Worcester      MIX PCPN  36  34  92 N8        30.04F VSB 1   WCI  30
Westfield      CLOUDY    38  37  97 NE7       30.06F FOG     WCI  33
Provincetown   LGT RAIN  44  44 100 SE16G24   30.04F FOG
Nantucket      CLOUDY    45  42  89 SE15      30.08F FOG
$$

ANZ330-335-338-340-345-350-353-355-271900-
COASTAL MARINE OBSERVATIONS


STATION/POSITION TIME  SKY/WX   TEMP    WIND        PRES    VSBY  WAVE
                                AIR SEA DIR/SP/G                  HT/PER
                 (UTC)          (F)     (DEG/KT/KT) (MB)    (MI)  (FT/S)
NY HARB ENTRANCE 1650            45 43  210/  2/  2 1017.9          3/ 7
20 S FIRE ISLAND 1650            45 40  220/ 10/ 10 1017.5          4/ 7
GREAT SOUTH BAY  NOT AVBL
23 SSW MONTAUK P 1650            47 43              1018.6          4/ 6
15 E BARNEGAT LI 1730               43                N/A           4/ 7
HUDSON CANYON    1650            51 45  200/ 12/ 14 1018.7          4/ 7
KINGS POINT      1730            41 39              1016.9
EXECUTION ROCKS  NOT AVBL
CENTRAL LI SOUND 1715            40      40/  6/  6   N/A           1
EASTERN LI SOUND NOT AVBL
ROBBINS REEF     1730            44     130/  3/  3 1017.5
$$


>>>>>>>>>>>>>>>>>>>>>>>>>>>> KEY <<<<<<<<<<<<<<<<<<<<<<<<<<<
>                                                          <
>     SKY/WX - Sky Condition/Present Weather               <
>     TMP    - Temperature in Fahrenheit                   <
>     DP     - Dew Point in Fahrenheit                     <
>     RH     - Relative Humidity in Percent                <
>     WIND   - Direction (from) and Speed in MPH           <
>     PRES   - Mean Sea Level Pressure (inches of Hg)      <
>     WCI    - Wind Chill Index                            <
>     VSB    - VISIBILITY IN MILES                         <
>     HX     - HEAT INDEX                                  <
>     TC     - TEMPERATURE IN CELSIUS                      <
>     VRB    - VARIABLE WIND DIRECTION                     <
>                                                          <
>>>>>>>>>>>>>>>>>>>>>>>>>>>> KEY <<<<<<<<<<<<<<<<<<<<<<<<<<<




USA.gov is the U.S. government's official web portal to all federal, state and local government web resources and services.